This is the latest recevied weather packets stored in our database for station/object CX5ACA-13. If no packets are shown the sender has not sent any weather packets the latest 10 day(s).
| Time | Temp. | Humidity | Pressure | Rain* | Wind** | Luminosity | Snow |
|---|---|---|---|---|---|---|---|
| 1777985495 | 17.78° C | 81% | 1015.5 hPa | 0 mm | - | 118 W/m² | - |
| 1777985191 | 17.78° C | 80% | 1015.3 hPa | 0 mm | - | 115 W/m² | - |
| 1777984887 | 17.78° C | 81% | 1015.2 hPa | 0 mm | - | 109 W/m² | - |
| 1777984583 | 17.22° C | 80% | 1015.3 hPa | 0 mm | - | 99 W/m² | - |
| 1777984280 | 17.22° C | 80% | 1015.1 hPa | 0 mm | - | 79 W/m² | - |
| 1777983977 | 17.22° C | 80% | 1015 hPa | 0 mm | - | 72 W/m² | - |
| 1777983674 | 16.67° C | 81% | 1015 hPa | 0 mm | - | 60 W/m² | - |
| 1777983370 | 16.67° C | 81% | 1015.1 hPa | 0 mm | - | 56 W/m² | - |
| 1777983067 | 16.67° C | 81% | 1015 hPa | 0 mm | - | 50 W/m² | - |
| 1777982764 | 16.67° C | 81% | 1015.1 hPa | 0 mm | - | 41 W/m² | - |
| 1777982459 | 16.67° C | 81% | 1015 hPa | 0 mm | - | 44 W/m² | - |
| 1777982154 | 16.67° C | 81% | 1015 hPa | 0 mm | - | 42 W/m² | - |
| 1777981852 | 16.67° C | 81% | 1014.9 hPa | 0 mm | - | 40 W/m² | - |
| 1777981549 | 16.67° C | 80% | 1015 hPa | 0 mm | - | 38 W/m² | - |
| 1777981245 | 16.67° C | 80% | 1015 hPa | 0 mm | - | 33 W/m² | - |
| 1777980941 | 16.67° C | 80% | 1014.8 hPa | 0 mm | - | 28 W/m² | - |
| 1777980638 | 16.67° C | 80% | 1014.8 hPa | 0 mm | - | 31 W/m² | - |
| 1777980334 | 16.67° C | 79% | 1014.7 hPa | 0 mm | - | 25 W/m² | - |
| 1777980033 | 16.67° C | 79% | 1014.7 hPa | 0 mm | - | 23 W/m² | - |
| 1777979726 | 16.67° C | 79% | 1014.8 hPa | 0 mm | - | 20 W/m² | - |
| 1777979423 | 16.67° C | 80% | 1014.6 hPa | 0 mm | - | 20 W/m² | - |
| 1777979119 | 16.67° C | 80% | 1014.6 hPa | 0 mm | - | 17 W/m² | - |
| 1777978816 | 16.67° C | 79% | 1014.8 hPa | 0 mm | - | 15 W/m² | - |
| 1777978513 | 16.67° C | 78% | 1014.5 hPa | 0 mm | - | 12 W/m² | - |
| 1777978208 | 16.11° C | 79% | 1014.5 hPa | 0 mm | - | 9 W/m² | - |
* Rain latest hour (hover to see other rain measurements)
** Current wind speed in m/s (hover to see current wind gust speed)